When you browse on this site, cookies collect data to enhance your experience and personalize the content and advertising you see.
Visit our Privacy Policy to learn more. By continuing to use the site, you agree to this use of cookies and data.
  • en Suisse
  • Liste des pays
  • À 7 jours
  • Température de l'eau
  • Carte météo
  • Widgets météo
  • user-avatar
    Se connecter

    Météo par heure à Dijon

    Ce jour, 5 Juin, Vendredi

    Heure Température Précipitation Vent Pression Humidité
    00:00 +10°C° 0 mm 2 m/s 727 mmHg 96%
    01:00 +10°C° 0 mm 2 m/s 727 mmHg 96%
    02:00 +10°C° 0 mm 2 m/s 726 mmHg 96%
    03:00 +9°C° 0 mm 3 m/s 726 mmHg 96%
    04:00 +10°C° 0.1 mm 3 m/s 727 mmHg 94%
    05:00 +10°C° 0.1 mm 4 m/s 727 mmHg 91%
    06:00 +9°C° 0 mm 5 m/s 727 mmHg 89%
    07:00 +10°C° 0 mm 5 m/s 727 mmHg 85%
    08:00 +10°C° 0 mm 5 m/s 727 mmHg 80%
    09:00 +11°C° 0 mm 6 m/s 727 mmHg 75%
    10:00 +11°C° 0.1 mm 6 m/s 727 mmHg 80%
    11:00 +10°C° 0.1 mm 6 m/s 727 mmHg 84%
    12:00 +9°C° 0 mm 7 m/s 727 mmHg 87%
    13:00 +10°C° 0 mm 7 m/s 727 mmHg 87%
    14:00 +11°C° 0 mm 7 m/s 727 mmHg 87%
    15:00 +12°C° 0 mm 7 m/s 727 mmHg 87%
    16:00 +13°C° 0.3 mm 6 m/s 728 mmHg 89%
    17:00 +13°C° 0.3 mm 6 m/s 728 mmHg 92%
    18:00 +13°C° 0.3 mm 5 m/s 728 mmHg 94%
    19:00 +13°C° 1 mm 5 m/s 728 mmHg 95%
    20:00 +12°C° 1 mm 4 m/s 729 mmHg 96%
    21:00 +12°C° 1 mm 4 m/s 729 mmHg 97%
    22:00 +12°C° 0.1 mm 4 m/s 729 mmHg 96%
    23:00 +13°C° 0.1 mm 5 m/s 729 mmHg 95%

    Demain, 6 Juin, Samedi

    Heure Température Précipitation Vent Pression Humidité
    00:00 +13°C° 0.1 mm 6 m/s 729 mmHg 95%
    01:00 +13°C° 0 mm 6 m/s 729 mmHg 94%
    02:00 +13°C° 0 mm 6 m/s 728 mmHg 94%
    03:00 +11°C° 0 mm 6 m/s 728 mmHg 93%
    04:00 +12°C° 0.2 mm 5 m/s 728 mmHg 94%
    05:00 +12°C° 0.2 mm 5 m/s 728 mmHg 94%
    06:00 +12°C° 0.2 mm 5 m/s 728 mmHg 94%
    07:00 +13°C° 0.3 mm 5 m/s 729 mmHg 94%
    08:00 +13°C° 0.3 mm 5 m/s 729 mmHg 94%
    09:00 +13°C° 0.3 mm 5 m/s 729 mmHg 93%
    10:00 +14°C° 0.2 mm 5 m/s 729 mmHg 90%
    11:00 +14°C° 0.2 mm 5 m/s 729 mmHg 88%
    12:00 +14°C° 0.2 mm 5 m/s 729 mmHg 85%
    13:00 +15°C° 0.1 mm 5 m/s 729 mmHg 82%
    14:00 +15°C° 0.1 mm 5 m/s 729 mmHg 79%
    15:00 +15°C° 0.1 mm 6 m/s 729 mmHg 75%
    16:00 +15°C° 0 mm 5 m/s 729 mmHg 77%
    17:00 +15°C° 0 mm 4 m/s 729 mmHg 78%
    18:00 +16°C° 0 mm 2 m/s 729 mmHg 79%
    19:00 +15°C° 0.2 mm 2 m/s 729 mmHg 82%
    20:00 +14°C° 0.2 mm 2 m/s 730 mmHg 85%
    21:00 +13°C° 0.2 mm 2 m/s 730 mmHg 88%
    22:00 +12°C° 0.2 mm 2 m/s 730 mmHg 89%
    23:00 +12°C° 0.2 mm 1 m/s 730 mmHg 91%

    Après-demain, 7 Juin, Dimanche

    Heure Température Précipitation Vent Pression Humidité
    00:00 +11°C° 0.2 mm 1 m/s 730 mmHg 92%
    01:00 +10°C° 0 mm 1 m/s 730 mmHg 92%
    02:00 +9°C° 0 mm 1 m/s 730 mmHg 92%
    03:00 +8°C° 0 mm 1 m/s 731 mmHg 93%
    04:00 +9°C° 0 mm 1 m/s 731 mmHg 91%
    05:00 +10°C° 0 mm 1 m/s 731 mmHg 90%
    06:00 +10°C° 0 mm 1 m/s 731 mmHg 88%
    07:00 +12°C° 0 mm 1 m/s 732 mmHg 80%
    08:00 +13°C° 0 mm 2 m/s 732 mmHg 71%
    09:00 +15°C° 0 mm 2 m/s 732 mmHg 63%
    10:00 +15°C° 0 mm 2 m/s 732 mmHg 61%
    11:00 +16°C° 0 mm 2 m/s 732 mmHg 59%
    12:00 +16°C° 0 mm 2 m/s 732 mmHg 56%
    13:00 +17°C° 0 mm 2 m/s 732 mmHg 57%
    14:00 +18°C° 0 mm 1 m/s 732 mmHg 59%
    15:00 +18°C° 0 mm 1 m/s 732 mmHg 60%
    16:00 +18°C° 0 mm 1 m/s 732 mmHg 66%
    17:00 +16°C° 0 mm 1 m/s 732 mmHg 72%
    18:00 +15°C° 0 mm 0 m/s 732 mmHg 78%
    19:00 +14°C° 0 mm 1 m/s 733 mmHg 81%
    20:00 +12°C° 0 mm 1 m/s 733 mmHg 84%
    21:00 +10°C° 0 mm 1 m/s 733 mmHg 87%
    22:00 +10°C° 0 mm 1 m/s 733 mmHg 88%
    23:00 +9°C° 0 mm 1 m/s 733 mmHg 89%

    8 Juin, Lundi

    Heure Température Précipitation Vent Pression Humidité
    00:00 +9°C° 0 mm 1 m/s 733 mmHg 90%
    01:00 +9°C° 0 mm 1 m/s 733 mmHg 90%
    02:00 +8°C° 0 mm 1 m/s 733 mmHg 90%
    03:00 +7°C° 0 mm 0 m/s 733 mmHg 90%
    04:00 +8°C° 0 mm 0 m/s 733 mmHg 89%
    05:00 +11°C° 0 mm 1 m/s 733 mmHg 87%
    06:00 +12°C° 0 mm 1 m/s 734 mmHg 86%
    07:00 +13°C° 0.1 mm 1 m/s 734 mmHg 82%
    08:00 +14°C° 0.1 mm 1 m/s 734 mmHg 79%
    09:00 +16°C° 0.1 mm 2 m/s 734 mmHg 75%
    10:00 +17°C° 0.3 mm 2 m/s 734 mmHg 71%
    11:00 +17°C° 0.3 mm 2 m/s 734 mmHg 67%
    12:00 +18°C° 0.3 mm 2 m/s 734 mmHg 64%
    13:00 +19°C° 0.1 mm 2 m/s 734 mmHg 61%
    14:00 +19°C° 0.1 mm 2 m/s 733 mmHg 59%
    15:00 +19°C° 0.1 mm 2 m/s 733 mmHg 56%
    16:00 +18°C° 0.2 mm 2 m/s 733 mmHg 64%
    17:00 +18°C° 0.2 mm 2 m/s 733 mmHg 72%
    18:00 +17°C° 0.2 mm 2 m/s 733 mmHg 80%
    19:00 +15°C° 0 mm 2 m/s 734 mmHg 83%
    20:00 +13°C° 0 mm 2 m/s 734 mmHg 87%
    21:00 +12°C° 0 mm 2 m/s 734 mmHg 90%
    22:00 +10°C° 0 mm 2 m/s 734 mmHg 90%
    23:00 +10°C° 0 mm 2 m/s 734 mmHg 90%

    9 Juin, Mardi

    Heure Température Précipitation Vent Pression Humidité
    00:00 +9°C° 0 mm 2 m/s 734 mmHg 90%
    01:00 +9°C° 0 mm 2 m/s 734 mmHg 91%
    02:00 +9°C° 0 mm 2 m/s 735 mmHg 92%
    03:00 +8°C° 0 mm 2 m/s 735 mmHg 93%
    04:00 +9°C° 0 mm 2 m/s 735 mmHg 92%
    05:00 +10°C° 0 mm 2 m/s 735 mmHg 91%
    06:00 +12°C° 0 mm 2 m/s 735 mmHg 90%
    07:00 +13°C° 0.1 mm 2 m/s 735 mmHg 90%
    08:00 +13°C° 0.1 mm 2 m/s 736 mmHg 90%
    09:00 +13°C° 0.1 mm 3 m/s 736 mmHg 90%
    10:00 +14°C° 0.2 mm 3 m/s 736 mmHg 86%
    11:00 +15°C° 0.2 mm 4 m/s 736 mmHg 83%
    12:00 +17°C° 0.2 mm 4 m/s 736 mmHg 80%
    13:00 +17°C° 0.7 mm 4 m/s 736 mmHg 82%
    14:00 +17°C° 0.7 mm 4 m/s 735 mmHg 84%
    15:00 +17°C° 0.7 mm 5 m/s 735 mmHg 85%
    16:00 +17°C° 0.5 mm 4 m/s 735 mmHg 87%
    17:00 +17°C° 0.5 mm 4 m/s 735 mmHg 89%
    18:00 +16°C° 0.5 mm 3 m/s 735 mmHg 91%
    19:00 +14°C° 0.1 mm 3 m/s 736 mmHg 92%
    20:00 +13°C° 0.1 mm 3 m/s 736 mmHg 93%
    21:00 +12°C° 0.1 mm 3 m/s 736 mmHg 94%
    22:00 +12°C° 0 mm 3 m/s 736 mmHg 94%
    23:00 +11°C° 0 mm 3 m/s 736 mmHg 94%

    10 Juin, Mercredi

    Heure Température Précipitation Vent Pression Humidité
    00:00 +12°C° 0 mm 2 m/s 736 mmHg 94%
    01:00 +12°C° 0.1 mm 2 m/s 736 mmHg 94%
    02:00 +12°C° 0.1 mm 2 m/s 736 mmHg 95%
    03:00 +12°C° 0.1 mm 2 m/s 735 mmHg 95%
    04:00 +13°C° 0.4 mm 2 m/s 736 mmHg 96%
    05:00 +12°C° 0.4 mm 3 m/s 736 mmHg 96%
    06:00 +12°C° 0.4 mm 3 m/s 736 mmHg 97%
    07:00 +12°C° 0.4 mm 3 m/s 736 mmHg 97%
    08:00 +12°C° 0.4 mm 3 m/s 736 mmHg 96%
    09:00 +13°C° 0.4 mm 3 m/s 737 mmHg 96%
    10:00 +14°C° 0.2 mm 3 m/s 737 mmHg 94%
    11:00 +15°C° 0.2 mm 4 m/s 737 mmHg 92%
    12:00 +17°C° 0.2 mm 4 m/s 737 mmHg 90%
    13:00 +15°C° 0.3 mm 4 m/s 737 mmHg 90%
    14:00 +15°C° 0.3 mm 4 m/s 737 mmHg 90%
    15:00 +16°C° 0.3 mm 3 m/s 737 mmHg 90%
    16:00 +16°C° 0.1 mm 3 m/s 737 mmHg 91%
    17:00 +14°C° 0.1 mm 3 m/s 737 mmHg 92%
    18:00 +14°C° 0.1 mm 3 m/s 737 mmHg 93%
    19:00 +14°C° 0 mm 3 m/s 737 mmHg 94%
    20:00 +14°C° 0 mm 3 m/s 737 mmHg 94%
    21:00 +13°C° 0 mm 3 m/s 738 mmHg 95%
    22:00 +13°C° 0 mm 3 m/s 737 mmHg 94%
    23:00 +13°C° 0 mm 3 m/s 737 mmHg 94%
    Voir plus